Date,TemperatureHighF,TemperatureAvgF,TemperatureLowF,DewpointHighF,DewpointAvgF,DewpointLowF,HumidityHigh,HumidityAvg,HumidityLow,PressureMaxIn,PressureMinIn,WindSpeedMaxMPH,WindSpeedAvgMPH,GustSpeedMaxMPH,PrecipitationSumIn
2013-5-1,84,71,58,64,57,50,85,64,40,29.92,29.72,6,2,0,0.00
2013-5-2,63,49,34,58,45,32,94,89,79,30.15,29.89,9,6,0,0.00
2013-5-3,47,38,33,38,34,31,96,84,55,30.14,29.86,11,7,0,0.00
2013-5-4,44,39,34,39,36,33,96,89,78,29.92,29.75,8,3,0,0.00
2013-5-5,59,48,35,49,42,34,97,83,61,30.00,29.91,8,4,0,0.00
2013-5-6,64,54,49,54,50,47,96,86,68,29.98,29.89,5,3,0,0.00
2013-5-7,77,62,44,57,50,43,98,70,39,29.97,29.85,4,1,0,0.00
2013-5-8,80,66,52,61,55,49,92,70,44,29.92,29.76,7,2,0,0.00
2013-5-9,77,65,58,63,59,56,97,84,58,29.84,29.73,8,3,0,0.00
2013-5-10,67,61,55,62,55,-100,98,88,71,29.93,29.75,7,3,0,0.00
2013-5-11,73,59,48,56,48,-100,97,70,33,30.09,29.92,8,3,0,0.00
2013-5-12,67,56,42,49,39,33,79,55,31,30.16,30.02,5,1,0,0.00
2013-5-13,81,65,47,59,50,44,89,63,39,30.05,29.91,7,2,0,0.00
2013-5-14,87,73,61,60,54,50,74,54,31,29.92,29.80,8,3,0,0.00
2013-5-15,74,68,62,66,60,51,95,77,56,29.84,29.72,7,2,0,0.00
2013-5-16,69,60,61,64,41,-100,96,91,82,29.74,29.68,3,1,0,0.00
2013-5-17,82,69,57,66,58,-100,98,79,53,29.79,29.72,3,1,0,0.00
2013-5-18,84,75,64,74,69,62,96,82,70,29.78,29.63,6,2,0,0.00
2013-5-19,88,78,72,70,67,63,91,69,44,29.69,29.48,9,5,0,0.00
2013-5-20,78,70,62,70,66,59,95,85,73,29.66,29.53,14,3,0,0.00
2013-5-21,65,61,58,61,59,56,97,92,85,29.78,29.44,11,4,0,0.00
2013-5-22,74,64,53,61,57,52,98,80,56,29.81,29.66,10,3,0,0.00
2013-5-23,74,65,55,62,58,54,97,80,61,30.01,29.81,5,2,0,0.00
2013-5-24,78,67,57,63,57,53,89,73,57,30.14,30.01,6,4,0,0.00
2013-5-25,83,71,59,67,60,51,81,68,57,30.09,29.91,6,3,0,0.00
2013-5-26,82,73,64,68,64,61,93,75,56,29.98,29.83,8,3,0,0.00
2013-5-27,83,75,67,69,66,60,93,75,57,29.85,29.65,9,5,0,0.00
2013-5-28,83,76,72,67,66,63,84,72,57,29.72,29.61,10,6,0,0.00
2013-5-29,79,75,69,68,66,64,85,73,64,29.73,29.59,9,5,0,0.00
2013-5-30,78,70,62,69,65,60,95,84,70,29.73,29.56,11,5,0,0.00
2013-5-31,85,75,62,73,69,60,97,83,65,29.65,29.49,10,4,0,0.00